Черлакский

Россия / Омская область     54°16′15″N   75°04′03″E
темп.,
°C
ветер,
м/с
пор.,
м/с
влажн.,
%
обл.,
%
осадки,
мм/ч
давл.,
гПа
погр.,
м
18 октября, пн
пн1800:00+6ююз48685 0.0 1024124
03:00+6юз347193 0.0 102351
06:00+5зюз33765 0.0 102428
09:00+5зюз35785 0.0 1024124
12:00+10зюз45535 0.0 1024528
15:00+12зюз45405 0.0 1024877
18:00+9юз33565 0.0 102423
21:00+8ююз346934 0.0 102454
19 октября, вт
вт1900:00+7ююз3576100 0.0 102482
03:00+7ююз3576100 0.0 102383
06:00+7ююз3575100 0.0 102382
09:00+7ююз367270 0.0 1024137
12:00+12ююз57525 0.0 1023417
15:00+14ююз56476 0.0 1021737
18:00+11ююв455733 0.0 102187
21:00+8ююв4105777 0.0 1020174
20 октября, ср
ср2000:00+6ююв4115598 0.0 1019199
03:00+5ююв495637 0.0 1018156
06:00+4ююв485882 0.0 1016132
09:00+5ююв495777 0.0 1016182
12:00+10ю464086 0.0 1014339
15:00+13ю4632100 0.0 1012483
18:00+9ююв3542100 0.0 101262
21:00+8ююв4746100 0.0 1011100
21 октября, чт
чт2100:00+7ююв465198 0.0 101086
03:00+6ю475499 0.0 100893
06:00+6ю4754100 0.0 1007100
09:00+7ю41052100 0.0 1006190
12:00+12ю51038100 0.0 1005390
15:00+15ююз5931100 0.0 1004691
18:00+11ю4739100 0.0 1005110
21:00+9зюз71372100 0.0 1008673
22 октября, пт
пт2200:00+6юз512730 0.0 1009402
03:00+5юз511705 0.0 1010392
06:00+4ююз511760 0.0 1012377
09:00+4ююз612650 0.0 1012688
12:00+7ююз9124285 0.0 10111853
15:00+7ююз81148100 0.0 10101775
18:00+5юз7126386 0.0 10101236
21:00+4юз71171100 0.0 1010885